Home   Weather   São Paulo   Past weeks
Flag for Brazil

Past Weather in São Paulo, São Paulo, Brazil — Yesterday and Last 2 Weeks

Now
64 °F

Passing clouds.


Feels Like: 64 °F
Forecast: 76 / 60 °F
Wind: 6 mph from Southeast

Location: Sao Paulo Airport

Current Time: Oct 23, 2019 at 7:28:05 am

Latest Report: Oct 23, 2019 at 7:00 am


Visibility: N/A

Pressure: 30.09 "Hg (27.51 "Hg at 765m altitude)

Humidity: 78%

Dew Point: 57 °F

Location of São PauloLocation

Past Weather in São Paulo — Graph

°F

São Paulo Temperature Yesterday

Maximum temperature yesterday: 75 °F (at 1:00 pm)
Minimum temperature yesterday: 59 °F (at 5:00 am)
Average temperature yesterday: 65 °F

High & Low Weather Summary for the Past Weeks

 TemperatureHumidityPressure
High93 °F (Oct 13, 2:00 pm)94% (Oct 8, 7:00 am)30.24 "Hg (Oct 8, 7:00 am)
Low59 °F (Oct 20, 6:00 am)26% (Oct 12, 2:00 pm)29.89 "Hg (Oct 21, 5:00 pm)
Average69 °F76%30.10 "Hg
* Reported Oct 8 6:00 am — Oct 23 6:00 am, São Paulo. Weather by CustomWeather, © 2019

Note: Actual official high and low records may vary slightly from our data, if they occured in-between our weather recording intervals... More about our weather records

Advertising

São Paulo Weather History for the Previous 24 Hours

Scroll right to see more
 ConditionsComfort  
Time TempWeatherWind HumidityBarometerVisibility
6:00 am
Wed, Oct 23
61 °FSunny.5 mph88%30.07 "Hg10 mi
5:00 am61 °FPassing clouds.7 mph88%30.07 "HgN/A
4:00 am63 °FPassing clouds.7 mph83%30.04 "HgN/A
3:00 am63 °FMostly cloudy.9 mph83%30.04 "HgN/A
2:00 am63 °FMostly cloudy.7 mph83%30.04 "HgN/A
1:00 am63 °FPassing clouds.7 mph77%30.04 "HgN/A
12:29 am64 °FOvercast.8 mph78%30.04 "HgN/A
12:12 am64 °FOvercast.8 mph73%30.04 "HgN/A
12:00 am63 °FPartly cloudy.12 mph83%30.04 "HgN/A
11:39 pm
Tue, Oct 22
63 °FPartly cloudy.12 mph83%30.07 "HgN/A
11:01 pm64 °FOvercast.9 mph78%30.07 "HgN/A
10:00 pm64 °FPartly cloudy.8 mph83%30.07 "HgN/A
9:00 pm64 °FPartly cloudy.9 mph78%30.04 "HgN/A
8:37 pm64 °FPartly cloudy.10 mph78%30.04 "HgN/A
8:00 pm64 °FPassing clouds.12 mph78%30.04 "HgN/A
7:00 pm64 °FPartly cloudy.10 mph83%30.01 "HgN/A
6:00 pm66 °FScattered clouds.13 mph78%30.01 "HgN/A
5:00 pm70 °FSunny.10 mph64%29.98 "Hg10 mi
4:00 pm72 °FPassing clouds.12 mph65%29.98 "HgN/A
3:00 pm72 °FBroken clouds.12 mph61%29.98 "HgN/A
2:00 pm73 °FBroken clouds.10 mph61%29.98 "HgN/A
1:00 pm75 °FBroken clouds.7 mph57%29.98 "HgN/A
12:00 pm72 °FPartly sunny.7 mph65%30.01 "HgN/A
11:00 am70 °FPartly sunny.7 mph69%30.01 "HgN/A
10:00 am68 °FSunny.7 mph73%30.01 "Hg10 mi
9:00 am66 °FScattered clouds.7 mph78%30.01 "HgN/A
8:00 am64 °FPartly sunny.7 mph83%29.98 "HgN/A
7:00 am64 °FSunny.3 mph83%29.98 "Hg10 mi
Weather by CustomWeather, © 2019

See weather overview